KI4AMD-13 Weather Reports


Display with metric or nautical units.
time (UTC)temp
F
wind
direction
speed
MPH
gust
MPH
rain 1hr
in
rain 24hr
in
rain mn
in
humidity
%
barometer
mb
20260504081608 0 0.0 0.0 0.00 0.00 0.00 1017.1
20260504070105 0 0.0 0.0 0.00 0.00 0.00 1017.4
20260504044604 0 0 0.0 0.0 0.00 0.00 0.00 1017.6
20260504043100 0 0 0.0 0.0 0.00 0.00 0.00 1017.4
20260504041558 0 0 0.0 0.0 0.00 0.00 0.00 1017.4
20260504034614 0 0 0.0 0.0 0.00 0.00 0.00 1017.3
20260504033058 0 0 0.0 0.0 0.00 0.00 0.00 1017.2
20260504031600 0 0 0.0 1.0 0.00 0.00 0.00 1017.2
20260504030058 0 0 0.0 0.0 0.00 0.00 0.00 1017.5
20260504024559 0 0 0.0 0.0 0.00 0.00 0.00 1017.3
20260504023058 0 0 0.0 0.0 0.00 0.00 0.00 1016.9
20260504021559 0 0 0.0 0.0 0.00 0.00 0.00 1017.0
20260504020059 0 0 0.0 0.0 0.00 0.00 0.00 1017.0
20260504014618 0 0 0.0 0.0 0.00 0.00 0.00 1017.1
20260504013104 0 0 0.0 0.0 0.00 0.00 0.00 1016.9
20260504011605 0 0 0.0 0.0 0.00 0.00 0.00 1016.9
20260504010100 0 0 0.0 0.0 0.00 0.00 0.00 1016.6
20260504004558 0 0 0.0 0.0 0.00 0.00 0.00 1016.4
20260504003100 0 0 0.0 0.0 0.00 0.00 0.00 1016.3
20260504001616 0 0 0.0 0.0 0.00 0.00 0.00 1016.3
20260503234600 0 240 0.0 2.0 0.00 0.00 0.00 1016.2
20260503233058 0 257 1.0 2.0 0.00 0.00 0.00 1016.4
20260503231558 0 257 1.0 3.0 0.00 0.00 0.00 1016.4
20260503230100 0 259 1.0 4.0 0.00 0.00 0.00 1016.4
20260503224557 0 257 1.0 3.0 0.00 0.00 0.00 1016.5
20260503223056 0 257 2.0 4.0 0.00 0.00 0.00 1016.6
20260503221557 0 255 1.0 4.0 0.00 0.00 0.00 1016.6
20260503220104 0 260 2.0 4.0 0.00 0.00 0.00 1016.8
20260503214602 0 250 3.0 4.0 0.00 0.00 0.00 1016.7
20260503213110 0 257 1.0 3.0 0.00 0.00 0.00 1016.9
20260503211557 0 257 2.0 4.0 0.00 0.00 0.00 1017.0
20260503210105 0 249 2.0 4.0 0.00 0.00 0.00 1017.1
20260503204600 0 254 1.0 5.0 0.00 0.00 0.00 1017.2
20260503203103 0 256 1.0 4.0 0.00 0.00 0.00 1017.5
20260503201559 0 259 2.0 4.0 0.00 0.00 0.00 1017.6
20260503200104 0 242 2.0 3.0 0.00 0.00 0.00 1017.9
20260503194557 0 236 2.0 6.0 0.00 0.00 0.00 1018.1
20260503193110 0 249 1.0 7.0 0.00 0.00 0.00 1018.2
20260503191608 0 210 0.0 4.0 0.00 0.00 0.00 1018.4
20260503190059 0 0 0.0 3.0 0.00 0.00 0.00 1018.5
20260503184611 0 247 1.0 4.0 0.00 0.00 0.00 1018.8
20260503183110 0 256 1.0 4.0 0.00 0.00 0.00 1018.9
20260503181609 0 238 1.0 4.0 0.00 0.00 0.00 1019.1
20260503180059 0 285 1.0 5.0 0.00 0.00 0.00 1019.2
20260503174556 0 260 2.0 4.0 0.00 0.00 0.00 1019.4
20260503173103 0 354 1.0 4.0 0.00 0.00 0.00 1019.7
20260503171558 0 274 1.0 5.0 0.00 0.00 0.00 1019.7
20260503160104 0 225 2.0 4.0 0.00 0.00 0.00 1020.5
20260503140106 0 0 0.0 3.0 0.00 0.00 0.00 1020.8